Location: Biskupice Nowe
(50.6923°N, 19.2988°E)
Time: 21:51:44
(UTC+00:00)

Daily predictions for brighter satellites

Satellite Brightness Start Highest point End
(mag) Time Altitude Azimuth Time Altitude Azimuth Time Altitude Azimuth
Cosmos 1455 Rocket 3.6 15:09:30 10° SSW 15:13:47 62° WNW 15:18:09 10° N
USA 215 3.6 15:07:40 10° ENE 15:14:04 58° NNW 15:20:28 10° W
Cosmos 1943 Rocket 4.4 15:13:14 10° NNW 15:14:21 11° NNW 15:15:28 10° N
Cosmos 1570 Rocket 4.3 15:09:39 10° NNW 15:15:01 80° WSW 15:20:19 10° SSE
Cosmos 1602 Rocket 4.1 15:11:05 10° N 15:15:13 37° ENE 15:19:14 10° SE
Cosmos 1634 Rocket 4.0 15:09:08 10° S 15:15:18 76° E 15:21:28 10° NNE
CZ-2D R/B 4.3 15:14:16 10° ESE 15:16:24 17° ENE 15:18:32 10° NNE
Cosmos 2227 Rocket 2.7 15:11:43 10° NNW 15:17:00 39° NE 15:22:17 10° ESE
Cosmos 1461 3.8 15:17:23 10° S 15:20:44 28° ESE 15:24:09 10° ENE
Cosmos 2369 Rocket 3.8 15:16:11 10° W 15:21:00 28° NW 15:25:52 10° NNE
Cosmos 773 Rocket 4.0 15:17:42 10° NNW 15:22:57 89° ENE 15:28:12 10° SSE
Cosmos 1486 Rocket 4.3 15:18:07 10° S 15:23:06 49° ESE 15:28:10 10° NNE
BREEZE-M DEB (TANK) 2.4 15:21:14 10° W 15:23:44 75° S 15:30:01 10° E
YAOGAN 1 4.3 15:23:06 10° E 15:24:49 12° NE 15:26:30 10° NNE
Cosmos 2279 Rocket 4.0 15:20:54 10° S 15:27:01 66° E 15:33:13 10° NNE
Cosmos 1743 2.3 15:26:50 10° N 15:30:02 54° ENE 15:33:13 10° SSE
Cosmos 2151 3.1 15:26:14 10° N 15:30:17 48° ENE 15:34:19 10° SSE
Cosmos 1697 Rocket 3.6 15:27:49 10° SSE 15:32:35 30° ESE 15:37:24 10° NE
Cosmos 1867 3.6 15:27:33 10° NW 15:33:02 68° NE 15:38:27 10° SE
Cosmos 2278 Rocket 4.4 15:32:58 10° NNW 15:33:41 10° NNW 15:34:25 10° N
NOSS 2-2 (D) 2.7 15:33:00 10° SW 15:36:17 83° NW 15:39:04 12° NE
IGS 5A 3.3 15:34:27 10° SSE 15:38:24 85° ENE 15:42:24 10° NNW
MOS 1 Rocket 4.0 15:34:33 10° SE 15:39:05 37° ENE 15:43:52 10° N
Cosmos 1607 4.1 15:32:56 10° NW 15:39:11 81° SW 15:45:28 10° SSE
IRIDIUM 106 4.5 15:34:21 10° N 15:39:27 51° E 15:44:31 10° SSE
Cosmos 1356 Rocket 4.5 15:38:52 10° SSW 15:42:46 45° WNW 15:46:43 10° N
Cosmos 1900 4.3 15:37:52 10° NW 15:42:57 79° NE 15:47:55 10° SE
BREEZE M DEB (TANK) 4.4 15:27:33 10° WNW 15:43:20 63° SSW 15:47:30 10° SE
BREEZE-M DEB (TANK) 3.1 15:40:39 10° W 15:43:22 78° S 15:50:59 10° E
SAR-Lupe-4 4.0 15:41:02 10° SE 15:44:21 39° ENE 15:47:43 10° N
ARIANE 5 R/B 2.6 15:40:18 10° SE 15:45:13 54° ENE 15:50:14 10° N
Cosmos 1825 Rocket 3.9 15:44:18 10° N 15:48:26 40° ENE 15:52:29 10° SE
Intercosmos 24 4.4 15:44:42 10° NNW 15:48:29 56° W 15:51:58 10° S
Cosmos 2084 Rocket 3.6 15:44:16 10° NW 15:48:30 76° SW 15:52:41 10° SE
NOSS 3-2 (A) 3.4 15:43:59 10° SW 15:49:07 73° NW 15:55:04 11° NE
Cosmos 2180 Rocket 4.4 15:43:08 10° S 15:49:12 68° E 15:55:20 10° NNE
Cosmos 1782 2.6 15:45:52 10° SSW 15:49:27 83° W 15:53:04 10° N
NOSS 3-2 (C) 3.3 15:45:45 10° SSW 15:50:41 57° SE 15:55:51 14° NE
Cosmos 1656 3.8 15:45:21 10° SSW 15:50:59 83° WNW 15:56:44 10° NNE
Cosmos 1758 Rocket 4.0 15:47:27 10° NNW 15:51:44 65° W 15:55:57 10° S
Cosmos 2098 Rocket 3.2 15:50:32 10° S 15:54:46 88° E 15:59:49 10° N
SAR-Lupe-1 4.3 15:51:42 10° SE 15:55:10 45° ENE 15:58:39 10° N
Gbstr 26 Del rocket 3.9 15:51:32 10° SSW 15:55:10 30° SSE 15:57:35 16° E
NOSS 2-2 (E) 2.9 15:53:17 10° SW 15:56:31 66° NW 15:58:41 17° NE
UNK 3.8 15:51:58 10° NNE 15:56:32 60° ESE 16:01:01 10° S
Meteor 1-20 Rocket 4.1 15:53:04 10° NNW 15:58:35 84° E 16:04:03 10° SSE
CZ-2D R/B 4.4 15:57:22 10° ESE 16:00:52 26° ENE 16:04:20 10° N
CZ-4C R/B 3.1 15:54:09 10° NW 16:01:01 79° SW 16:09:36 10° SE
Cosmos 2266 Rocket 3.9 15:55:21 10° N 16:01:33 80° E 16:07:36 10° SSE
SPOT 1/Viking Rocket 4.0 15:57:15 10° SE 16:02:03 39° ENE 16:06:52 10° N
Cosmos 2082 4.4 15:59:00 10° NNW 16:04:07 32° NE 16:08:44 12° ESE
SMAP 3.1 16:01:20 10° SSE 16:06:00 84° WSW 16:10:41 10° NNW
Cosmos 1076 Rocket 3.9 16:02:48 10° N 16:06:53 40° ENE 16:10:57 10° SE
PSLV R/B 4.5 16:06:53 19° E 16:08:18 23° ENE 16:11:30 10° N
IRS-P3 4.1 16:03:39 10° SSE 16:08:52 61° ENE 16:14:07 10° N
Cosmos 2297 Rocket 3.2 16:04:16 10° NW 16:09:45 51° WSW 16:15:12 10° S
Landsat 7 3.7 16:06:09 10° SSE 16:10:49 86° ENE 16:15:29 10° NNW
COSMO-SKYMED 1 4.0 16:12:53 18° ESE 16:12:53 18° ESE 16:15:04 10° SE
Cosmos 2058 Rocket 4.2 16:09:31 10° SE 16:13:02 23° E 16:13:33 23° ENE
[s.n.66845] 3.7 16:11:54 10° N 16:12:44 15° N 16:12:44 15° N
Meteor 1-28 Rocket 3.8 16:10:59 10° N 16:14:15 49° WNW 16:17:28 10° SSW
SJ-6F 4.3 16:10:21 10° SSE 16:14:15 60° ENE 16:18:14 10° N
[s.n.66847] 3.7 16:12:21 10° N 16:13:11 16° N 16:13:11 16° N
[s.n.66846] 3.7 16:12:46 10° N 16:13:36 16° N 16:13:36 16° N
[s.n.66843] 3.7 16:13:18 10° N 16:14:08 16° N 16:14:08 16° N
[s.n.66844] 3.7 16:13:44 10° N 16:14:35 16° N 16:14:35 16° N
[s.n.66842] 3.7 16:14:16 10° N 16:15:06 16° N 16:15:06 16° N
[s.n.66841] 3.7 16:14:43 10° N 16:15:33 16° N 16:15:33 16° N
[s.n.66840] 3.7 16:15:12 10° N 16:16:02 16° N 16:16:02 16° N
[s.n.66838] 3.7 16:15:41 10° N 16:16:31 16° N 16:16:31 16° N
[s.n.66839] 3.7 16:16:11 10° N 16:17:01 16° N 16:17:01 16° N
Cosmos 1538 Rocket 4.1 16:13:22 10° NNW 16:18:33 53° ENE 16:23:45 10° SE
[s.n.66837] 3.7 16:16:37 10° N 16:17:27 16° N 16:17:27 16° N
[s.n.66836] 3.7 16:17:07 10° N 16:17:57 16° N 16:17:57 16° N
[s.n.66835] 3.7 16:17:38 10° N 16:18:27 16° N 16:18:27 16° N
[s.n.66834] 3.7 16:18:07 10° N 16:18:56 16° N 16:18:56 16° N
[s.n.66833] 3.7 16:18:33 10° N 16:19:22 16° N 16:19:22 16° N
[s.n.66832] 3.7 16:19:05 10° N 16:19:54 16° N 16:19:54 16° N
[s.n.66831] 3.7 16:19:30 10° N 16:20:19 16° N 16:20:19 16° N
[s.n.66830] 3.7 16:19:56 10° N 16:20:45 16° N 16:20:45 16° N
[s.n.66828] 3.7 16:20:21 10° N 16:21:11 16° N 16:21:11 16° N
[s.n.66829] 3.7 16:20:53 10° N 16:21:42 16° N 16:21:42 16° N
[s.n.66827] 3.7 16:21:24 10° NNW 16:22:13 16° N 16:22:13 16° N
Cosmos 1606 Rocket 3.5 16:19:42 10° S 16:24:06 73° E 16:28:32 10° NNE
[s.n.66826] 3.7 16:21:55 10° NNW 16:22:43 16° N 16:22:43 16° N
[s.n.66825] 3.7 16:22:21 10° NNW 16:23:08 16° N 16:23:08 16° N
[s.n.66824] 3.7 16:22:51 10° NNW 16:23:40 16° N 16:23:40 16° N
[s.n.66823] 3.7 16:23:22 10° NNW 16:24:10 16° N 16:24:10 16° N
[s.n.66822] 3.7 16:23:51 10° NNW 16:24:39 16° N 16:24:39 16° N
[s.n.66821] 3.7 16:24:19 10° NNW 16:25:07 16° N 16:25:07 16° N
Cosmos 1503 Rocket 4.1 16:23:46 10° SSW 16:29:00 77° WNW 16:33:38 13° NNE
Cosmos 2219 3.3 16:24:18 10° NNW 16:29:55 52° NE 16:35:31 10° SE
CENTAUR R/B 3.7 16:25:55 10° W 16:31:45 37° NNW 16:36:56 17° NE
SL-16 R/B 3.4 16:26:24 10° N 16:32:21 49° WNW 16:38:16 10° SW
GEOS 3 Rocket 3.7 16:28:50 21° NE 16:32:33 89° NW 16:37:56 10° SW
AQUARIUS 4.2 16:29:35 10° S 16:34:00 76° WSW 16:38:26 10° NNW
Cosmos 1980 Rocket 2.6 16:30:36 10° S 16:35:51 42° ESE 16:37:57 30° ENE
Resurs 1-3 3.7 16:32:05 10° SE 16:36:12 46° ENE 16:40:20 10° N
NOSS 2-3 (C) 3.6 16:33:32 10° SSW 16:36:45 37° SE 16:36:50 37° ESE
Cosmos 1844 Rocket 3.7 16:32:23 10° NNW 16:37:03 26° NE 16:37:20 25° NE
Lacrosse 5 rocket 2.1 16:33:44 10° WNW 16:37:03 30° N 16:37:41 28° NNE
Meteor 2-20 4.4 16:31:37 10° S 16:37:39 60° E 16:43:41 10° NNE
Cosmos 1354 Rocket 4.0 16:33:19 10° SSW 16:38:36 88° WNW 16:42:34 18° NNE
Meteor 1-5 Rocket 4.1 16:33:54 10° NNW 16:39:17 90° WSW 16:44:45 10° S
BREEZE M DEB (TANK) 2.9 16:39:39 10° SW 16:41:17 32° SSW 16:41:17 32° SSW
Lacrosse 4 Rocket 3.8 16:40:01 10° NW 16:41:43 12° NNW 16:43:25 10° N
Spot 4 Rocket 3.9 16:39:45 10° SSE 16:44:46 63° ENE 16:49:51 10° N
Cosmos 2263 Rocket 2.1 16:39:13 10° NNW 16:44:55 87° ENE 16:50:37 10° SSE
Cosmos 1244 Rocket 4.5 16:40:22 10° N 16:46:34 57° ENE 16:52:39 10° SSE
Cosmos 1726 Rocket 3.6 16:43:23 10° S 16:48:03 88° WNW 16:51:54 15° N
Cosmos 2369 4.4 16:43:50 10° SSE 16:48:44 31° ESE 16:48:44 31° ESE
Cosmos 1898 Rocket 3.9 16:45:00 10° S 16:49:44 38° ESE 16:49:57 38° E
USA 238 DEB 3.7 16:45:28 10° SSW 16:51:21 52° ESE 16:53:47 35° ENE
USA 238 3.7 16:45:35 10° SSW 16:51:28 52° ESE 16:53:53 35° ENE
Cosmos 44 Rocket 4.2 16:49:00 10° NNW 16:53:32 32° NNE 16:53:32 32° NNE
USA 215 3.5 16:53:50 33° ENE 16:56:36 54° N 17:02:56 10° WNW
Cosmos 1461 3.6 16:53:37 10° WSW 16:57:21 43° NW 16:58:30 33° N
Cosmos 1933 4.4 16:54:35 10° SSW 16:58:15 42° WNW 17:01:21 14° N
Meteor 2-20 Rocket 4.4 16:53:15 10° S 16:59:22 62° E 17:04:05 17° NNE
YAOGAN 1 2.3 16:55:41 10° SSE 16:59:57 80° ENE 17:04:13 10° NNW
SKYMED 2 3.4 16:58:49 41° NNE 17:00:17 78° ESE 17:04:38 10° S
Cosmos 923 Rocket 4.0 16:55:20 10° NNW 17:00:27 53° ENE 17:01:12 49° E
Cosmos-2242 3.1 16:56:34 10° S 17:00:12 53° SE 17:00:12 53° SE
Cosmos 2227 Rocket 3.3 16:55:47 10° NW 17:01:09 46° WSW 17:06:30 10° S
SL-08 R/B 4.5 16:55:07 10° N 17:01:23 61° ENE 17:07:39 10° SSE
Cosmos 372 Rocket 3.9 16:57:25 10° S 17:02:28 59° ESE 17:03:17 52° ENE
BREEZE-M DEB (TANK) 4.3 17:00:18 10° SSW 17:02:20 20° S 17:02:20 20° S
NOSS 2-3 (E) 3.0 17:00:03 10° SW 17:03:38 84° SSE 17:03:38 84° SSE
NOSS 2-3 (D) 3.0 17:00:41 10° SW 17:04:14 78° SSE 17:04:14 78° SSE
Cosmos 1937 Rocket 4.2 17:03:47 10° S 17:07:22 35° SE 17:07:22 35° SE
Meteor 2-10 4.3 17:08:57 10° NNW 17:14:19 74° W 17:19:50 10° S
BREEZE-M DEB (TANK) 4.4 16:48:46 10° W 17:16:04 78° SSW 17:19:11 37° ESE
Cosmos 1697 Rocket 3.2 17:10:45 10° SW 17:16:14 55° NW 17:19:15 26° NNE
Aureole 1 Rocket 3.3 17:13:55 10° SSW 17:18:28 85° ESE 17:19:37 56° NNE
Cosmos 2278 Rocket 4.4 17:19:27 10° N 17:19:59 10° N 17:19:59 10° N
Resurs 01 Rocket 4.1 17:29:46 12° N 17:29:46 12° N 17:30:03 10° N
NOAA 6 4.0 17:26:31 10° SSE 17:31:38 78° WSW 17:36:45 10° NNW
COSMOS 2455 4.2 17:26:51 10° S 17:29:38 25° SSE 17:29:38 25° SSE
Cosmos 1680 Rocket 3.8 17:27:43 10° NNW 17:31:45 52° N 17:31:45 52° N
Meteor 2-2 Rocket 4.2 17:34:30 10° SSW 17:40:09 78° WNW 17:41:51 47° N
Gbstr 26 Del rocket 4.2 17:37:16 10° WSW 17:39:37 35° WSW 17:39:37 35° WSW
NOSS 3-2 (C) 4.2 17:36:39 10° W 17:41:46 42° NNW 17:43:16 36° N
COSMO-SKYMED 1 3.9 17:49:13 34° SW 17:49:13 34° SW 17:51:45 10° SW
Cosmos 2082 4.1 17:42:56 10° NW 17:48:34 60° WSW 17:50:41 37° S
Cosmos 2058 Rocket 4.1 17:46:22 10° SSW 17:50:38 44° WNW 17:50:44 44° WNW
Lacrosse 5 rocket 4.3 18:11:14 10° NW 18:11:16 10° NW 18:11:16 10° NW
USA 281 4.4 18:22:44 30° N 18:22:44 30° N 18:25:59 10° NNW
Cosmos 1980 Rocket 3.2 18:14:31 10° WSW 18:19:44 42° NW 18:19:44 42° NW
Cosmos 1844 Rocket 4.0 18:15:55 10° NNW 18:18:59 34° NW 18:18:59 34° NW
CENTAUR R/B 4.0 18:18:08 10° NW 18:24:02 32° N 18:24:02 32° N
USA 215 3.8 18:41:10 52° NW 18:41:10 52° NW 18:45:56 10° WNW
USA 238 DEB 4.4 18:36:16 10° WSW 18:41:14 45° WNW 18:41:14 45° WNW
USA 238 4.4 18:36:21 10° WSW 18:41:19 45° WNW 18:41:19 45° WNW
